Вернуться в каталог

STARLINK-30333

АктивенСвязьVLEO
NORAD 57702·PAYLOAD·🇺🇸 United States

Запущен Aug 27, 2023 с Cape Canaveral Space Force Station

Loading…

Ближайшие Пролёты (ближайшие 24 часа)

TLE

СвежийSource: CelesTrak SupGP

Эпоха: Sep 14, 2026, 21:05 UTC

1 57702C 23129E   26257.87895833 -.00064660  00000+0 -23423-2 0  2577
2 57702  43.0022 129.1327 0001322 271.4295 339.2966 15.27605948    13

Отслеживайте STARLINK-30333 в реальном времени с AllMySat

Download on the App Store